This demonstration page uses our WeatherBlox Daily Observations layout. Learn more.

Left ArrowRight Arrow

39.92423, -83.80882

Hourly Observations for August 25, 2020

Temp ( °F °C ) Dew Point ( °F °C ) Humidity (%) Winds ( mph kmh ) Pressure ( in mb ) Visibility ( mi km ) Precip ( " mm )
12:56 am 00:56 Mostly Clear 73 22.8 73 22.8 100 100 SW 7 11 30.05 1018 10 16 N/A
1:56 am 01:56 Mostly Clear 72 22.2 72 22.2 100 100 SW 6 9 30.05 1018 10 16 N/A
2:56 am 02:56 Clear 71 21.7 71 21.7 100 100 SW 6 9 30.04 1017 8 13 N/A
3:56 am 03:56 Clear with Mist and Fog 69 20.6 69 20.6 100 100 SW 5 7 30.04 1017 6 10 N/A
4:56 am 04:56 Cloudy with Mist and Fog 70 21.1 70 21.1 100 100 SW 6 9 30.03 1017 6 10 N/A
5:56 am 05:56 Clear with Mist and Fog 70 21.1 70 21.1 100 100 SW 6 9 30.03 1017 6 10 N/A
6:56 am 06:56 Clear with Mist and Fog 69 20.6 69 20.6 100 100 WSW 7 11 30.06 1018 4 6 N/A
7:56 am 07:56 Sunny 73 22.8 73 22.8 100 100 W 7 11 30.06 1018 7 11 N/A
8:56 am 08:56 Sunny 76 24.4 75 23.9 97 97 W 7 11 30.06 1018 10 16 N/A
9:56 am 09:56 Sunny 81 27.2 75 23.9 82 82 W 12 19 30.06 1018 10 16 N/A
10:56 am 10:56 Sunny 84 28.9 75 23.9 74 74 WNW 8 13 30.06 1018 10 16 N/A
11:56 am 11:56 Mostly Cloudy 86 30 74 23.3 67 67 W 10 17 30.05 1018 10 16 N/A
12:56 pm 12:56 Sunny 89 31.7 75 23.9 63 63 WNW 9 15 30.04 1017 10 16 N/A
1:46 pm 13:46 Partly Cloudy with Nearby Thunderstorms 90 32 73 23 59 59 WNW 13 20 29.98 1015 10 16 N/A
1:56 pm 13:56 Partly Cloudy with Thunderstorms 85 29.4 73 22.8 68 68 WNW 18 30 30.04 1017 10 16 0.00 0.00
2:31 pm 14:31 Mostly Sunny 75 24 72 22 89 89 SW 8 13 30.02 1016 10 16 0.06 1.52
2:56 pm 14:56 Sunny 83 28.3 73 22.8 72 72 W 6 9 30.01 1016 10 16 0.06 1.52
3:56 pm 15:56 Sunny 89 31.7 71 21.7 55 55 WNW 10 17 30.01 1016 10 16 N/A
4:56 pm 16:56 Sunny 89 31.7 68 20 50 50 NNW 14 22 30.00 1016 10 16 N/A
5:56 pm 17:56 Sunny 87 30.6 70 21.1 57 57 WNW 7 11 30.00 1016 10 16 N/A
6:56 pm 18:56 Sunny 86 30 69 20.6 57 57 NNW 8 13 30.00 1016 10 16 N/A
7:56 pm 19:56 Sunny 80 26.7 68 20 67 67 N 5 7 30.02 1017 10 16 N/A
8:56 pm 20:56 Clear 74 23.3 72 22.2 94 94 N N/A 30.05 1018 10 16 N/A
9:56 pm 21:56 Cloudy 73 22.8 72 22.2 96 96 WSW 3 6 30.08 1019 10 16 N/A
10:56 pm 22:56 Clear 72 22.2 72 22.2 100 100 N N/A 30.09 1019 10 16 N/A
11:56 pm 23:56 Mostly Clear 70 21.1 70 21.1 100 100 N N/A 30.09 1019 10 16 N/A

Powered by AerisWeather